Flag for Switzerland Weather past 2 weeks in Aarau, Aargau, Switzerland

Now
42 °F

Quite cool.


Feels Like: 40 °F
Forecast: 36 / 64 °F
Wind: 3 mph from Southwest

Location: Wynau


UV Index: 0 (Low)

Visibility: N/A


Pressure: 29.78 "Hg

Humidity: 85%

Dew point: 37 °F

Location of AarauLocation

Historic Weather in Aarau

°F

Aarau temperature yesterday

Maximum temperature yesterday: 46 °F (at 7:00 PM)
Minimum temperature yesterday: 34 °F (at 1:00 AM)
Average temperature yesterday: 40 °F

Past Weeks' High & Low Weather Summary

 TemperatureHumidityPressure
High70 °F (Apr 11, 5:00 PM)100% (Apr 7, 4:00 AM)30.38 "Hg (Apr 7, 4:00 AM)
Low32 °F (Apr 16, 6:00 AM)22% (Apr 17, 6:00 PM)29.77 "Hg (Apr 20, 6:00 AM)
Average50 °F70%30.10 "Hg
* Reported Apr 5 7:00 AM — Apr 20 7:00 AM, Aarau, Weather by CustomWeather, © 2014

Note: Actual official high and low records may vary slightly from our data, if they occured in-between our weather recording intervals... More about our weather records

Advertising

Historic Weather Conditions — Data for Previous 24 hours

 ConditionsComfort  
Time TempWeatherWind HumidityBarometerVisibility
7:00 AM
Apr 20
37 °FChilly.1 mph98%29.78 "HgN/A
6:00 AM40 °FChilly.2 mph93%29.77 "HgN/A
5:00 AM42 °FQuite cool.3 mph86%29.77 "HgN/A
4:00 AM42 °FQuite cool.3 mph88%29.78 "HgN/A
3:00 AM43 °FQuite cool.2 mph91%29.78 "HgN/A
2:00 AM44 °FQuite cool.3 mph88%29.78 "HgN/A
1:00 AM43 °FQuite cool.2 mph93%29.78 "HgN/A
12:00 AM43 °FQuite cool.1 mph93%29.79 "HgN/A
11:00 PM
Apr 19
44 °FQuite cool.2 mph90%29.80 "HgN/A
10:00 PM44 °FQuite cool.1 mph90%29.82 "HgN/A
9:00 PM44 °FQuite cool.1 mph90%29.83 "HgN/A
8:00 PM45 °FQuite cool.1 mph88%29.82 "HgN/A
7:00 PM46 °FCool.3 mph80%29.81 "HgN/A
6:00 PM46 °FCool.7 mph78%29.81 "HgN/A
5:00 PM46 °FCool.7 mph77%29.81 "HgN/A
4:00 PM45 °FQuite cool.12 mph76%29.83 "HgN/A
3:00 PM43 °FQuite cool.14 mph79%29.84 "HgN/A
2:00 PM43 °FQuite cool.8 mph84%29.84 "HgN/A
1:00 PM41 °FQuite cool.8 mph86%29.86 "HgN/A
12:00 PM42 °FQuite cool.8 mph88%29.86 "HgN/A
11:00 AM40 °FChilly.10 mph88%29.87 "HgN/A
10:00 AM39 °FChilly.3 mph91%29.87 "HgN/A
9:00 AM39 °FChilly.7 mph91%29.87 "HgN/A
8:00 AM38 °FChilly.7 mph93%29.88 "HgN/A
Weather by CustomWeather, © 2014

See weather overview